Latest Coastal Weather Observations for Browse Island

IDW60701

Issued at 11:25 pm WST Wednesday 22 October 2014 (issued every 10 minutes, with the page automatically refreshed every 10 minutes)

About coastal observations | Map of coastal stations | Coastal observations for WA | Marine services | Other Formats
Station Details ID: 200784 Name: BROWSE ISLAND Lat: -14.11 Lon: 123.55 Height: 3.7 m
Data from the previous 72 hours. | See also: Recent months for locations in Western Australia
Date/Time
WST
Temp

°C
Wind Pressure Rain
since 9am
mm
Weather Cloud Vis
km
Sea
Height
m
Swell
Dir
 
Speed
knots
Gust
knots
hPa Trend Height
m
Period
s
Dir
22/11:00pm 28.0 NNW 8 - 1013.2 - - - - - - - - -
22/10:30pm 28.0 NW 8 - 1013.0 - - - - - - - - -
22/10:00pm 27.9 NNW 8 - 1013.6 - - - - - - - - -
22/09:30pm 28.0 NW 8 - 1013.0 - - - - - - - - -
22/09:00pm 28.1 NW 9 - 1013.2 - - - - - - - - -
22/08:30pm 28.0 WNW 9 - 1013.0 - - - - - - - - -
22/08:00pm 28.1 WNW 10 - 1012.9 - - - - - - - - -
22/07:30pm 28.0 NW 10 - 1012.0 - - - - - - - - -
22/07:00pm 28.1 NNW 11 - 1012.6 - - - - - - - - -
22/06:30pm 28.0 NNW 10 - 1012.0 - - - - - - - - -
22/06:00pm 28.3 N 10 - 1012.1 - - - - - - - - -
22/05:30pm 28.0 NNW 11 - 1011.0 - - - - - - - - -
22/05:00pm 28.5 N 8 - 1011.7 - - - - - - - - -
22/04:30pm 29.0 NNW 9 - 1011.0 - - - - - - - - -
22/04:00pm 28.7 N 9 - 1011.4 - - - - - - - - -
22/03:30pm 29.0 NW 8 - 1011.0 - - - - - - - - -
22/03:00pm 28.9 WNW 7 - 1011.2 - - - - - - - - -
22/02:30pm 29.0 NW 7 - 1011.0 - - - - - - - - -
22/02:00pm 29.6 NW 7 - 1011.6 - - - - - - - - -
22/01:30pm 30.0 NW 8 - 1011.0 - - - - - - - - -
22/01:00pm 28.5 NNW 9 - 1012.0 - - - - - - - - -
22/12:30pm 30.0 NNW 8 - 1012.0 - - - - - - - - -
22/12:00pm 28.6 NNW 8 - 1013.0 - - - - - - - - -
22/11:30am 29.0 NNW 9 - 1013.0 - - - - - - - - -
22/11:00am 28.3 NW 8 - 1013.7 - - - - - - - - -
22/10:30am 29.0 NW 8 - 1013.0 - - - - - - - - -
22/10:00am 28.5 WNW 8 - 1013.9 - - - - - - - - -
22/09:30am 28.0 WNW 7 - 1014.0 - - - - - - - - -
22/09:00am 28.2 WNW 7 - 1014.4 - - - - - - - - -
22/08:30am 28.0 WNW 7 - 1014.0 - - - - - - - - -
22/08:00am 27.9 WNW 7 - 1014.2 - - - - - - - - -
22/07:30am 28.0 WNW 7 - 1014.0 - - - - - - - - -
22/07:00am 27.8 WNW 8 - 1013.7 - - - - - - - - -
22/06:30am 28.0 WNW 7 - 1013.0 - - - - - - - - -
22/06:00am 27.5 WNW 7 - 1013.0 - - - - - - - - -
22/05:30am 28.0 WNW 7 - 1012.0 - - - - - - - - -
22/05:00am 27.6 WNW 8 - 1012.5 - - - - - - - - -
22/04:30am 28.0 WNW 9 - 1012.0 - - - - - - - - -
22/04:00am 27.5 W 8 - 1012.0 - - - - - - - - -
22/03:30am 28.0 W 8 - 1012.0 - - - - - - - - -
22/03:00am 27.7 W 8 - 1012.2 - - - - - - - - -
22/02:30am 28.0 WNW 7 - 1012.0 - - - - - - - - -
22/02:00am 27.9 NW 7 - 1012.2 - - - - - - - - -
22/01:30am 28.0 NNW 8 - 1012.0 - - - - - - - - -
22/01:00am 27.9 NNW 10 - 1012.2 - - - - - - - - -
22/12:30am 28.0 NNW 11 - 1012.0 - - - - - - - - -
22/12:00am 27.8 NNW 11 12 1012.4 - - - - - - - - -
 
Date/Time
WST
Temp

°C
Wind Pressure Rain
since 9am
mm
Weather Cloud Vis
km
Sea
Height
m
Swell
Dir
 
Speed
knots
Gust
knots
hPa Trend Height
m
Period
s
Dir
21/11:30pm 28.0 NNW 11 - 1012.0 - - - - - - - - -
21/11:00pm 28.0 NNW 10 - 1013.0 - - - - - - - - -
21/10:30pm 28.0 NW 9 - 1013.0 - - - - - - - - -
21/10:00pm 28.1 NW 9 - 1013.8 - - - - - - - - -
21/09:30pm 28.0 NW 8 - 1014.0 - - - - - - - - -
21/09:00pm 28.2 NW 8 - 1013.8 - - - - - - - - -
21/08:30pm 28.0 NW 8 - 1013.0 - - - - - - - - -
21/08:00pm 28.2 WNW 8 - 1013.6 - - - - - - - - -
21/07:30pm 28.0 WNW 7 - 1013.0 - - - - - - - - -
21/07:00pm 28.4 W 8 - 1013.3 - - - - - - - - -
21/06:30pm 28.0 W 8 - 1013.0 - - - - - - - - -
21/06:00pm 28.5 W 8 - 1012.9 - - - - - - - - -
21/05:30pm 29.0 W 8 - 1012.0 - - - - - - - - -
21/05:00pm 28.6 W 9 - 1012.1 - - - - - - - - -
21/04:30pm 29.0 W 9 - 1011.0 - - - - - - - - -
21/04:00pm 28.8 W 11 - 1011.6 - - - - - - - - -
21/03:30pm 29.0 W 10 - 1011.0 - - - - - - - - -
21/03:00pm 28.9 W 10 - 1011.8 - - - - - - - - -
21/02:30pm 29.0 W 10 - 1012.0 - - - - - - - - -
21/02:00pm 29.0 W 9 - 1012.2 - - - - - - - - -
21/01:30pm 29.0 W 9 - 1012.0 - - - - - - - - -
21/01:00pm 29.2 W 11 - 1013.2 - - - - - - - - -
21/12:30pm 30.0 W 11 - 1013.0 - - - - - - - - -
21/12:00pm 29.5 W 10 - 1014.0 - - - - - - - - -
21/11:30am 30.0 W 10 - 1014.0 - - - - - - - - -
21/11:00am 29.2 W 13 - 1014.5 - - - - - - - - -
21/10:30am 29.0 W 13 - 1014.0 - - - - - - - - -
21/10:00am 28.9 W 10 - 1015.1 - - - - - - - - -
21/09:30am 29.0 WNW 10 - 1015.0 - - - - - - - - -
21/09:00am 28.8 W 9 - 1015.5 - - - - - - - - -
21/08:30am 29.0 W 10 - 1015.0 - - - - - - - - -
21/08:00am 28.5 W 9 - 1015.3 - - - - - - - - -
21/07:30am 28.0 W 8 - 1015.0 - - - - - - - - -
21/07:00am 28.4 W 8 - 1014.9 - - - - - - - - -
21/06:30am 28.0 WSW 8 - 1014.0 - - - - - - - - -
21/06:00am 28.0 SW 9 - 1014.2 - - - - - - - - -
21/05:30am 28.0 SW 8 - 1014.0 - - - - - - - - -
21/05:00am 27.7 WSW 7 - 1013.5 - - - - - - - - -
21/04:30am 28.0 WSW 7 - 1013.0 - - - - - - - - -
21/04:00am 27.6 SW 6 - 1013.1 - - - - - - - - -
21/03:30am 28.0 SW 7 - 1013.0 - - - - - - - - -
21/03:00am 27.8 SW 9 - 1012.6 - - - - - - - - -
21/02:30am 28.0 SW 10 - 1012.0 - - - - - - - - -
21/02:00am 28.1 SW 12 - 1012.1 - - - - - - - - -
21/01:30am 28.0 SW 12 - 1012.0 - - - - - - - - -
21/01:00am 28.2 WSW 11 - 1012.2 - - - - - - - - -
21/12:30am 28.0 WSW 10 - 1012.0 - - - - - - - - -
21/12:00am 28.3 WSW 10 - 1012.9 - - - - - - - - -
 
Date/Time
WST
Temp

°C
Wind Pressure Rain
since 9am
mm
Weather Cloud Vis
km
Sea
Height
m
Swell
Dir
 
Speed
knots
Gust
knots
hPa Trend Height
m
Period
s
Dir
20/11:30pm 28.0 W 9 - 1013.0 - - - - - - - - -
20/11:00pm 28.2 W 9 - 1013.7 - - - - - - - - -
20/10:30pm 28.0 W 9 - 1013.0 - - - - - - - - -
20/10:00pm 28.1 W 9 - 1014.0 - - - - - - - - -
20/09:30pm 28.0 W 9 - 1014.0 - - - - - - - - -
20/09:00pm 28.1 W 9 - 1013.9 - - - - - - - - -
20/08:30pm 28.0 W 10 - 1014.0 - - - - - - - - -
20/08:00pm 28.0 W 10 - 1013.6 - - - - - - - - -
20/07:30pm 28.0 W 10 - 1013.0 - - - - - - - - -
20/07:00pm 28.0 W 10 - 1013.0 - - - - - - - - -
20/06:30pm 28.0 W 10 - 1012.0 - - - - - - - - -
20/06:00pm 27.9 W 9 - 1012.2 - - - - - - - - -
20/05:30pm 28.0 W 8 - 1012.0 - - - - - - - - -
20/05:00pm 28.2 WSW 6 - 1012.0 - - - - - - - - -
20/04:30pm 28.0 WSW 7 - 1012.0 - - - - - - - - -
20/04:00pm 28.4 WSW 6 - 1011.8 - - - - - - - - -
20/03:30pm 28.0 SSW 5 - 1012.0 - - - - - - - - -
20/03:00pm 29.2 S 5 - 1012.3 - - - - - - - - -
20/02:30pm 29.0 SSW 6 - 1012.0 - - - - - - - - -
20/02:00pm 29.3 S 4 - 1012.6 - - - - - - - - -
20/01:30pm 29.0 S 5 - 1012.0 - - - - - - - - -
20/01:00pm 29.3 SSE 5 - 1013.3 - - - - - - - - -
20/12:30pm 29.0 S 7 - 1013.0 - - - - - - - - -
20/12:00pm 27.9 S 10 - 1013.4 - - - - - - - - -
20/11:30am 28.0 S 9 - 1013.0 - - - - - - - - -
20/11:00am 28.1 S 9 - 1014.3 - - - - - - - - -
20/10:30am 28.0 S 9 - 1014.0 - - - - - - - - -
20/10:00am 27.9 S 7 - 1015.0 - - - - - - - - -
20/09:30am 28.0 S 7 - 1015.0 - - - - - - - - -
20/09:00am 27.8 S 8 - 1015.4 - - - - - - - - -
20/08:30am 28.0 S 7 - 1015.0 - - - - - - - - -
20/08:00am 27.7 S 7 - 1015.3 - - - - - - - - -
20/07:30am 28.0 S 9 - 1015.0 - - - - - - - - -
20/07:00am 27.4 SSW 8 - 1014.6 - - - - - - - - -
20/06:30am 27.0 SSW 7 - 1014.0 - - - - - - - - -
20/06:00am 27.1 SSW 9 - 1013.9 - - - - - - - - -
20/05:30am 27.0 SSW 9 - 1013.0 - - - - - - - - -
20/05:00am 27.1 SSW 10 - 1013.3 - - - - - - - - -
20/04:30am 27.0 SSW 10 - 1013.0 - - - - - - - - -
20/04:00am 27.3 SW 10 - 1012.5 - - - - - - - - -
20/03:30am 27.0 SW 7 - 1012.0 - - - - - - - - -
20/03:00am 27.3 SW 5 - 1012.1 - - - - - - - - -
20/02:30am 27.0 WSW 5 - 1012.0 - - - - - - - - -
20/02:00am 27.2 W 4 - 1012.0 - - - - - - - - -
20/01:30am 27.0 W 5 - 1012.0 - - - - - - - - -
20/01:00am 27.2 WNW 4 - 1012.3 - - - - - - - - -
20/12:30am 27.0 WNW 5 - 1012.0 - - - - - - - - -
20/12:00am 27.4 NW 5 - 1012.9 - - - - - - - - -
 
Date/Time
WST
Temp

°C
Wind Pressure Rain
since 9am
mm
Weather Cloud Vis
km
Sea
Height
m
Swell
Dir
 
Speed
knots
Gust
knots
hPa Trend Height
m
Period
s
Dir
19/11:30pm 27.0 WNW 5 - 1013.0 - - - - - - - - -

Other Formats:

Comma delimited format used in spreadsheet applications
http://www.bom.gov.au/fwo/IDW60701/IDW60701.94103.axf

JavaScript Object Notation format (JSON) in row-major order
http://www.bom.gov.au/fwo/IDW60701/IDW60701.94103.json